DW5656 Weather Reports


time (UTC)temp
F
wind
direction
speed
knots
gust
knots
rain 1hr
in
rain 24hr
in
rain mn
in
humidity
%
barometer
mb
20260504140847 74 238 4.3 11.3 0.00 0.00 0.00 38 1013.9
20260504130526 73 271 2.6 12.2 0.00 0.00 0.00 41 1014.2
20260504120226 71 270 3.5 10.4 0.00 0.00 0.00 45 1014.9
20260504100526 68 238 1.7 9.6 0.00 0.00 0.00 53 1015.4
20260504081725 63 321 2.6 7.0 0.00 0.00 0.00 72 1015.4
20260504080825 63 345 2.6 7.8 0.00 0.00 0.00 72 1015.4
20260504060225 60 305 0.0 0.9 0.00 0.00 0.00 82 1014.6
20260504045925 60 0 0.0 0.0 0.00 0.00 0.00 81 1014.0
20260504045046 60 0 0.0 0.0 0.00 0.00 0.00 81 1013.9
20260504044125 60 0 0.0 0.0 0.00 0.00 0.00 82 1013.8
20260504043225 60 0 0.0 0.0 0.00 0.00 0.00 82 1013.8
20260504042324 60 0 0.0 0.0 0.00 0.00 0.00 82 1013.7
20260504041425 60 0 0.0 0.0 0.00 0.00 0.00 82 1013.6
20260504040524 60 0 0.0 0.0 0.00 0.00 0.00 82 1013.7
20260504035624 60 0 0.0 0.0 0.00 0.00 0.00 82 1013.6
20260504034726 60 0 0.0 0.0 0.00 0.00 0.00 82 1013.7
20260504033824 60 0 0.0 0.0 0.00 0.00 0.00 82 1013.8
20260504032924 60 0 0.0 0.0 0.00 0.00 0.00 82 1013.9
20260504032024 60 0 0.0 0.0 0.00 0.00 0.00 82 1013.9
20260504031145 60 0 0.0 0.0 0.00 0.00 0.00 82 1013.7
20260504030245 60 0 0.0 0.0 0.00 0.00 0.00 82 1013.8
20260504025324 60 0 0.0 0.0 0.00 0.00 0.00 82 1013.8
20260504024424 61 0 0.0 0.0 0.00 0.00 0.00 82 1013.7
20260504023545 61 0 0.0 0.0 0.00 0.00 0.00 82 1013.6
20260504022624 61 0 0.0 0.0 0.00 0.00 0.00 82 1013.6
20260504021724 61 0 0.0 0.0 0.00 0.00 0.00 82 1013.6
20260504020824 61 0 0.0 0.0 0.00 0.00 0.00 81 1013.6
20260504015945 61 0 0.0 0.0 0.00 0.00 0.00 81 1013.7
20260504015024 60 0 0.0 0.0 0.00 0.00 0.00 81 1013.7
20260504014125 61 0 0.0 0.0 0.00 0.00 0.00 81 1013.8
20260504013224 61 0 0.0 0.0 0.00 0.00 0.00 81 1013.8
20260504012324 61 0 0.0 0.0 0.00 0.00 0.00 80 1013.9
20260504011445 61 0 0.0 0.0 0.00 0.00 0.00 80 1013.8
20260504010525 61 0 0.0 0.0 0.00 0.00 0.00 80 1013.9
20260504005645 62 214 0.0 0.9 0.00 0.00 0.00 80 1014.0
20260504004724 62 232 0.0 3.5 0.00 0.00 0.00 79 1014.0
20260504003845 62 221 0.9 1.7 0.00 0.00 0.00 79 1014.0
20260504002924 62 200 0.9 4.3 0.00 0.00 0.00 79 1014.1
20260504002045 62 212 1.7 7.8 0.00 0.00 0.00 79 1014.3
20260504001124 63 221 2.6 5.2 0.00 0.00 0.00 80 1014.3
20260504000226 63 232 2.6 7.0 0.00 0.00 0.00 80 1014.4
20260503235324 63 229 2.6 7.0 0.00 0.00 0.00 79 1014.5
20260503234424 63 232 1.7 5.2 0.00 0.00 0.00 79 1014.5
20260503233524 63 252 1.7 5.2 0.00 0.00 0.00 79 1014.5
20260503232624 63 218 1.7 4.3 0.00 0.00 0.00 78 1014.6
20260503231745 63 218 1.7 4.3 0.00 0.00 0.00 78 1014.7
20260503230845 63 226 1.7 5.2 0.00 0.00 0.00 78 1014.7
20260503225924 63 227 2.6 6.1 0.00 0.00 0.00 77 1014.7
20260503225024 63 218 1.7 6.1 0.00 0.00 0.00 77 1014.8
20260503224125 63 213 1.7 5.2 0.00 0.00 0.00 76 1014.9
20260503223223 63 217 1.7 7.8 0.00 0.00 0.00 76 1014.8
20260503222323 63 224 1.7 5.2 0.00 0.00 0.00 76 1014.8
20260503221423 63 226 1.7 6.1 0.00 0.00 0.00 76 1014.7
20260503220545 63 238 2.6 8.7 0.00 0.00 0.00 76 1014.8
20260503215623 63 237 1.7 7.0 0.00 0.00 0.00 75 1014.8
20260503214723 63 233 1.7 5.2 0.00 0.00 0.00 74 1014.8
20260503213844 63 228 1.7 5.2 0.00 0.00 0.00 74 1014.7
20260503212944 63 225 1.7 5.2 0.00 0.00 0.00 74 1014.7
20260503212023 64 245 1.7 6.1 0.00 0.00 0.00 73 1014.7
20260503211123 64 247 2.6 6.1 0.00 0.00 0.00 73 1014.7
20260503210224 64 256 3.5 5.2 0.00 0.00 0.00 73 1014.6
20260503205323 64 265 3.5 9.6 0.00 0.00 0.00 73 1014.5
20260503204424 64 247 3.5 7.0 0.00 0.00 0.00 72 1014.4
20260503203544 64 245 3.5 7.8 0.00 0.00 0.00 72 1014.3
20260503202644 64 266 3.5 7.8 0.00 0.00 0.00 72 1014.2
20260503201723 64 261 5.2 9.6 0.00 0.00 0.00 71 1014.1
20260503200823 65 267 5.2 13.0 0.00 0.00 0.00 71 1013.9
20260503195923 65 268 6.1 13.0 0.00 0.00 0.00 70 1013.7
20260503195023 65 266 5.2 13.0 0.00 0.00 0.00 69 1013.6
20260503194124 65 259 7.0 13.0 0.00 0.00 0.00 68 1013.4
20260503193223 66 264 6.1 12.2 0.00 0.00 0.00 67 1013.4
20260503192323 66 261 6.1 12.2 0.00 0.00 0.00 66 1013.4
20260503191423 66 268 5.2 13.0 0.00 0.00 0.00 65 1013.3
20260503190523 67 269 6.1 9.6 0.00 0.00 0.00 63 1013.3
20260503185623 67 262 7.0 13.0 0.00 0.00 0.00 63 1013.2
20260503184744 68 249 7.8 15.6 0.00 0.00 0.00 62 1013.2
20260503183823 68 243 7.0 14.8 0.00 0.00 0.00 60 1013.2
20260503182944 68 248 7.8 16.5 0.00 0.00 0.00 57 1013.1
20260503182023 69 246 7.8 13.9 0.00 0.00 0.00 58 1013.1
20260503181144 69 238 7.8 13.9 0.00 0.00 0.00 58 1013.1
20260503180223 70 237 7.8 13.9 0.00 0.00 0.00 60 1013.0
20260503175323 70 254 7.8 13.9 0.00 0.00 0.00 59 1012.9
20260503174423 71 264 7.8 13.9 0.00 0.00 0.00 58 1012.8
20260503173523 72 248 7.8 13.9 0.00 0.00 0.00 56 1012.9
20260503172623 72 251 7.0 13.0 0.00 0.00 0.00 56 1012.9
20260503171744 72 262 7.0 13.9 0.00 0.00 0.00 56 1012.8
20260503170844 72 258 7.0 13.9 0.00 0.00 0.00 55 1012.7
20260503150222 74 247 7.8 17.4 0.00 0.00 0.00 49 1013.0